Location: Newark
(40.9833°N, 0.0333°W)
Time: 21:01:12
(UTC+00:00)

Vanguard 2 Rocket - Pass Details

Date: 01 November 2020
Orbit: 553 x 3326 km, 32.9° (Epoch: 29 November)

Event Time Altitude Azimuth Distance (km) Brightness Sun altitude
Rises 16:42:24 0° 231° (SW) 3,101 11.4 1.5°
Reaches altitude 10° 16:45:30 10° 214° (SW) 1,967 9.7 1.0°
Maximum altitude 16:48:35 19° 167° (SSE) 1,348 7.9 0.4°
Drops below altitude 10° 16:51:27 10° 119° (ESE) 1,824 8.1 -0.1°
Sets 16:54:11 0° 101° (E) 2,794 8.9 -0.6°
